Regional Weather Roundup
Issued by NWS

Home | Current Version | Previous Version | Graphics & Text | Print | Product List | Glossary On
Versions: 1 2 3 4 5 6 7 8 9 10 11 12 13 14 15 16 17 18 19 20 21 22 23 24 25 26 27 28 29 30 31 32 33 34 35 36 37 38 39 40 41 42 43 44 45 46 47 48 49 50
000
ASUS45 KABQ 280310
RWRNM
NEW MEXICO REGIONAL WEATHER ROUNDUP
NATIONAL WEATHER SERVICE ALBUQUERQUE NM
900 PM MDT MON JUL 27 2015

NOTE: "FAIR" MEANS FEW OR NO CLOUDS BELOW 12,000 FEET AGL WITH NO
       SIGNIFICANT WEATHER OR OBSTRUCTIONS TO VISION.

      THIS PRODUCT IS RELEASED AS TWO VERSIONS.  ONE VERSION NEAR
      THE TOP OF THE HOUR CONTAINING PRELIMINARY DATA FROM ALBUQUERQUE
      AND OTHER STATIONS.  A FINAL VERSION WITH ADDITIONAL DATA IS
      ISSUED ABOUT 10 MINUTES AFTER THE HOUR.

NMZ501-503-504-510>518-280400-
NORTHWEST PLATEAU/NORTHCENTRAL MOUNTAINS

CITY           SKY/WX    TMP DP  RH WIND       PRES   REMARKS
FARMINGTON     CLEAR     82  26  13 W6        30.01R
LOS ALAMOS     PTCLDY    77  39  26 SW6       30.21R
SANTA FE       MOCLDY    78  47  33 SW5       30.12R
TAOS           PTCLDY    72  43  35 SW8       30.20R
ANGEL FIRE     FAIR      57  48  72 CALM      30.30R

$$
NMZ402-403-502-505>509-280400-
WESTCENTRAL MOUNTAINS/SOUTHWEST MOUNTAINS

CITY           SKY/WX    TMP DP  RH WIND       PRES   REMARKS
GALLUP         PTCLDY    74  35  24 W7        30.14R
GRANTS         PTCLDY    72  48  42 W5        30.17R
SILVER CITY      N/A     81  43  26 W7        30.10R

$$
NMZ407-409-411-412-280400-
SOUTHERN DESERTS

CITY           SKY/WX    TMP DP  RH WIND       PRES   REMARKS
LORDSBURG      FAIR      86  48  26 SW7       29.99R
DEMING         PTCLDY    88  45  22 W9        29.98R
LAS CRUCES     TSTM      80  55  42 S40       30.02R
HOLLOMAN AFB   MOCLDY    91  50  24 W5        29.94R
ALAMOGORDO     MOCLDY    88  50  27 W3        29.97R
T OR C         MOCLDY    85  53  33 CALM      30.01R

$$
NMZ519>523-280400-
CENTRAL VALLEYS/CENTRAL HIGHLANDS

CITY           SKY/WX    TMP DP  RH WIND       PRES   REMARKS
ALBUQUERQUE    CLOUDY    86  49  27 S9        30.05R
DOUBLE EAGLE   PTCLDY    75  54  46 S6        30.10R
MORIARTY ARPT    N/A     75  49  40 SE10      30.16R
CLINES CORNERS CLOUDY    69  51  52 S12       30.20S
BELEN          FAIR      83  48  29 S6        30.05R
SOCORRO        FAIR      83  49  31 CALM      30.02R

$$
NMZ524>526-539-540-280400-
SOUTHCENTRAL MOUNTAINS

CITY           SKY/WX    TMP DP  RH WIND       PRES   REMARKS
RUIDOSO          N/A    N/A N/A N/A MISG        N/A

$$
NMZ527>531-280400-
NORTHEAST HIGHLANDS/NORTHEAST PLAINS

CITY           SKY/WX    TMP DP  RH WIND       PRES   REMARKS
LAS VEGAS      MOCLDY    65  54  67 S6        30.18R
RATON          MOCLDY    73  53  49 SW8       30.08R
CLAYTON        MOCLDY    80  55  42 SW9       29.99R

$$
NMZ532>537-280400-
EASTCENTRAL PLAINS

CITY           SKY/WX    TMP DP  RH WIND       PRES   REMARKS
TUCUMCARI      MOCLDY    86  53  32 S13       29.93R
CANNON AFB     MOCLDY    83  59  43 W12       30.01R THUNDER
CLOVIS AIRPORT MOCLDY    82  55  39 SE12      30.01R

$$
NMZ028-029-538-280400-
SOUTHEAST PLAINS

CITY           SKY/WX    TMP DP  RH WIND       PRES   REMARKS
ROSWELL        MOCLDY    90  53  28 S10       29.93R
ARTESIA        MOCLDY    88  59  37 S12G17    29.94R
CARLSBAD       MOCLDY    87  58  37 SW12      29.91R
HOBBS          CLOUDY    82  61  47 CALM      29.98R


$$



USA.gov is the U.S. government's official web portal to all federal, state and local government web resources and services.